| time (UTC) | temp C | wind direction | speed KPH | gust KPH | rain 1hr cm | rain 24hr cm | rain mn cm | humidity % | barometer mb |
| 20260509111559 | 11 | 0 | 0.0 | 0.0 | 0.00 | 0.00 | 0.00 | 93 | 1006.0 |
| 20260509110057 | 11 | 0 | 0.0 | 0.0 | 0.00 | 0.00 | 0.00 | 93 | 1005.8 |
| 20260509104602 | 11 | 0 | 0.0 | 0.0 | 0.00 | 0.00 | 0.00 | 93 | 1006.0 |
| 20260509103106 | 11 | 0 | 0.0 | 0.0 | 0.00 | 0.00 | 0.00 | 91 | 1005.7 |
| 20260509101613 | 12 | 0 | 0.0 | 0.0 | 0.00 | 0.00 | 0.00 | 90 | 1005.7 |
| 20260509100056 | 12 | 0 | 0.0 | 0.0 | 0.00 | 0.00 | 0.00 | 89 | 1005.8 |
| 20260509094601 | 12 | 0 | 0.0 | 0.0 | 0.00 | 0.00 | 0.00 | 88 | 1005.5 |
| 20260509093059 | 12 | 0 | 0.0 | 0.0 | 0.00 | 0.00 | 0.00 | 86 | 1005.5 |
| 20260509091558 | 12 | 0 | 0.0 | 0.0 | 0.00 | 0.00 | 0.00 | 85 | 1006.0 |
| 20260509084604 | 13 | 0 | 0.0 | 0.0 | 0.00 | 0.00 | 0.00 | 82 | 1006.0 |
| 20260509083107 | 13 | 0 | 0.0 | 0.0 | 0.00 | 0.00 | 0.00 | 81 | 1006.2 |
| 20260509081556 | 14 | 0 | 0.0 | 0.0 | 0.00 | 0.00 | 0.00 | 79 | 1006.2 |
| 20260509080059 | 15 | 0 | 0.0 | 0.0 | 0.00 | 0.00 | 0.00 | 76 | 1006.5 |
| 20260509074612 | 14 | 0 | 0.0 | 0.0 | 0.00 | 0.00 | 0.00 | 78 | 1006.4 |
| 20260509073107 | 12 | 0 | 0.0 | 0.0 | 0.00 | 0.00 | 0.00 | 85 | 1006.0 |
| 20260509071558 | 12 | 0 | 0.0 | 0.0 | 0.00 | 0.00 | 0.00 | 88 | 1006.0 |
| 20260509070059 | 11 | 0 | 0.0 | 0.0 | 0.00 | 0.00 | 0.00 | 88 | 1006.2 |
| 20260509064600 | 12 | 0 | 0.0 | 0.0 | 0.00 | 0.00 | 0.00 | 87 | 1006.4 |
| 20260509063104 | 12 | 0 | 0.0 | 0.0 | 0.00 | 0.00 | 0.00 | 87 | 1006.6 |
| 20260509061558 | 12 | 0 | 0.0 | 0.0 | 0.00 | 0.00 | 0.00 | 87 | 1006.6 |
| 20260509060118 | 11 | 0 | 0.0 | 0.0 | 0.00 | 0.00 | 0.00 | 86 | 1006.8 |
| 20260509054555 | 11 | 0 | 0.0 | 0.0 | 0.00 | 0.00 | 0.00 | 86 | 1007.0 |
| 20260509053116 | 11 | 0 | 0.0 | 0.0 | 0.00 | 0.00 | 0.00 | 86 | 1006.9 |
| 20260509051606 | 11 | 0 | 0.0 | 0.0 | 0.00 | 0.00 | 0.00 | 85 | 1006.9 |
| 20260509044607 | 12 | 0 | 0.0 | 0.0 | 0.00 | 0.00 | 0.00 | 85 | 1007.0 |
| 20260509043100 | 12 | 0 | 0.0 | 0.0 | 0.00 | 0.00 | 0.00 | 85 | 1007.1 |
| 20260509041557 | 12 | 0 | 0.0 | 0.0 | 0.00 | 0.00 | 0.00 | 85 | 1007.1 |
| 20260509040109 | 11 | 0 | 0.0 | 0.0 | 0.00 | 0.00 | 0.00 | 84 | 1007.2 |
| 20260509034603 | 11 | 0 | 0.0 | 0.0 | 0.00 | 0.00 | 0.00 | 83 | 1007.3 |
| 20260509033126 | 11 | 0 | 0.0 | 0.0 | 0.00 | 0.00 | 0.00 | 81 | 1007.3 |
| 20260509031558 | 12 | 0 | 0.0 | 0.0 | 0.00 | 0.00 | 0.00 | 79 | 1007.4 |
| 20260509030058 | 12 | 0 | 0.0 | 0.0 | 0.00 | 0.00 | 0.00 | 78 | 1007.5 |
| 20260509024605 | 13 | 0 | 0.0 | 0.0 | 0.00 | 0.00 | 0.00 | 76 | 1007.5 |
| 20260509023058 | 13 | 0 | 0.0 | 0.0 | 0.00 | 0.00 | 0.00 | 76 | 1007.7 |
| 20260509021559 | 14 | 0 | 0.0 | 0.0 | 0.00 | 0.00 | 0.00 | 73 | 1007.6 |
| 20260509020111 | 14 | 0 | 0.0 | 0.0 | 0.00 | 0.00 | 0.00 | 71 | 1007.8 |
| 20260509014557 | 15 | 0 | 0.0 | 0.0 | 0.00 | 0.00 | 0.00 | 71 | 1007.6 |
| 20260509013103 | 15 | 0 | 0.0 | 0.0 | 0.00 | 0.00 | 0.00 | 69 | 1007.4 |
| 20260509011602 | 15 | 0 | 0.0 | 0.0 | 0.00 | 0.00 | 0.00 | 68 | 1007.3 |
| 20260509010101 | 15 | 0 | 0.0 | 0.0 | 0.00 | 0.00 | 0.00 | 67 | 1007.6 |
| 20260509004558 | 16 | 0 | 0.0 | 0.0 | 0.00 | 0.00 | 0.00 | 65 | 1007.6 |
| 20260509003102 | 17 | 0 | 0.0 | 0.0 | 0.00 | 0.00 | 0.00 | 63 | 1007.7 |
| 20260509001556 | 18 | 0 | 0.0 | 0.0 | 0.00 | 0.00 | 0.00 | 57 | 1007.6 |
| 20260509000056 | 20 | 0 | 0.0 | 0.0 | 0.00 | 0.00 | 0.00 | 50 | 1007.9 |
| 20260508234602 | 21 | 0 | 0.0 | 0.0 | 0.00 | 0.00 | 0.00 | 46 | 1007.8 |
| 20260508233108 | 22 | 0 | 0.0 | 1.6 | 0.00 | 0.00 | 0.00 | 45 | 1007.9 |
| 20260508231611 | 21 | 0 | 0.0 | 1.6 | 0.00 | 0.00 | 0.00 | 45 | 1008.0 |
| 20260508230104 | 21 | 0 | 0.0 | 12.9 | 0.00 | 0.00 | 0.00 | 45 | 1008.0 |
| 20260508224556 | 22 | 0 | 0.0 | 8.0 | 0.00 | 0.00 | 0.00 | 45 | 1007.9 |
| 20260508223057 | 22 | 0 | 0.0 | 6.4 | 0.00 | 0.00 | 0.00 | 45 | 1008.0 |
| 20260508221557 | 22 | 174 | 0.0 | 17.7 | 0.00 | 0.00 | 0.00 | 45 | 1008.1 |
| 20260508220057 | 22 | 218 | 4.8 | 20.9 | 0.00 | 0.00 | 0.00 | 42 | 1008.1 |
| 20260508214559 | 22 | 222 | 1.6 | 17.7 | 0.00 | 0.00 | 0.00 | 44 | 1008.1 |
| 20260508213100 | 22 | 257 | 3.2 | 16.1 | 0.00 | 0.00 | 0.00 | 44 | 1008.1 |
| 20260508211600 | 22 | 0 | 4.8 | 19.3 | 0.00 | 0.00 | 0.00 | 44 | 1008.1 |
| 20260508210108 | 22 | 165 | 1.6 | 22.5 | 0.00 | 0.00 | 0.00 | 43 | 1008.3 |
| 20260508204607 | 22 | 0 | 0.0 | 19.3 | 0.00 | 0.00 | 0.00 | 44 | 1008.5 |
| 20260508203100 | 22 | 250 | 4.8 | 24.1 | 0.00 | 0.00 | 0.00 | 44 | 1008.8 |
| 20260508201600 | 22 | 189 | 3.2 | 16.1 | 0.00 | 0.00 | 0.00 | 42 | 1009.0 |
| 20260508200057 | 22 | 245 | 1.6 | 11.3 | 0.00 | 0.00 | 0.00 | 44 | 1009.5 |
| 20260508194608 | 22 | 218 | 3.2 | 22.5 | 0.00 | 0.00 | 0.00 | 44 | 1009.8 |
| 20260508193119 | 22 | 226 | 4.8 | 17.7 | 0.00 | 0.00 | 0.00 | 44 | 1009.9 |
| 20260508191607 | 21 | 0 | 1.6 | 20.9 | 0.00 | 0.00 | 0.00 | 46 | 1010.2 |
| 20260508190113 | 21 | 221 | 0.0 | 17.7 | 0.00 | 0.00 | 0.00 | 45 | 1010.3 |
| 20260508184557 | 21 | 0 | 1.6 | 24.1 | 0.00 | 0.00 | 0.00 | 45 | 1010.5 |
| 20260508183100 | 21 | 157 | 0.0 | 17.7 | 0.00 | 0.00 | 0.00 | 46 | 1010.6 |
| 20260508181604 | 21 | 0 | 0.0 | 24.1 | 0.00 | 0.00 | 0.00 | 46 | 1010.9 |
| 20260508180105 | 21 | 245 | 3.2 | 17.7 | 0.00 | 0.00 | 0.00 | 44 | 1011.0 |
| 20260508174555 | 20 | 0 | 4.8 | 17.7 | 0.00 | 0.00 | 0.00 | 46 | 1011.0 |
| 20260508173057 | 20 | 0 | 0.0 | 20.9 | 0.00 | 0.00 | 0.00 | 49 | 1010.9 |
| 20260508171557 | 20 | 0 | 3.2 | 16.1 | 0.00 | 0.00 | 0.00 | 46 | 1011.4 |
| 20260508170101 | 20 | 172 | 0.0 | 9.7 | 0.00 | 0.00 | 0.00 | 48 | 1011.7 |
| 20260508164557 | 20 | 236 | 1.6 | 17.7 | 0.00 | 0.00 | 0.00 | 47 | 1012.0 |
| 20260508163106 | 20 | 0 | 0.0 | 14.5 | 0.00 | 0.00 | 0.00 | 48 | 1012.4 |
| 20260508161559 | 19 | 214 | 3.2 | 16.1 | 0.00 | 0.00 | 0.00 | 49 | 1012.5 |
| 20260508160057 | 19 | 0 | 0.0 | 14.5 | 0.00 | 0.00 | 0.00 | 49 | 1013.0 |
| 20260508154556 | 19 | 193 | 0.0 | 12.9 | 0.00 | 0.00 | 0.00 | 50 | 1013.0 |
| 20260508153108 | 18 | 246 | 1.6 | 12.9 | 0.00 | 0.00 | 0.00 | 50 | 1013.0 |
| 20260508151557 | 18 | 270 | 0.0 | 12.9 | 0.00 | 0.00 | 0.00 | 52 | 1013.4 |
| 20260508150059 | 17 | 0 | 0.0 | 11.3 | 0.00 | 0.00 | 0.00 | 54 | 1013.6 |
| 20260508144555 | 17 | 0 | 0.0 | 3.2 | 0.00 | 0.00 | 0.00 | 54 | 1013.7 |
| 20260508143116 | 16 | 0 | 0.0 | 9.7 | 0.00 | 0.00 | 0.00 | 60 | 1013.6 |
| 20260508141605 | 16 | 0 | 0.0 | 6.4 | 0.00 | 0.00 | 0.00 | 58 | 1013.8 |
| 20260508140118 | 15 | 215 | 0.0 | 3.2 | 0.00 | 0.00 | 0.00 | 62 | 1013.7 |
| 20260508134556 | 14 | 0 | 0.0 | 0.0 | 0.00 | 0.00 | 0.00 | 66 | 1013.7 |
| 20260508133103 | 12 | 0 | 0.0 | 1.6 | 0.00 | 0.00 | 0.00 | 73 | 1013.9 |
| 20260508131558 | 10 | 0 | 0.0 | 0.0 | 0.00 | 0.00 | 0.00 | 95 | 1013.7 |
| 20260508130058 | 8 | 0 | 0.0 | 0.0 | 0.00 | 0.00 | 0.00 | 98 | 1013.8 |
| 20260508124559 | 6 | 0 | 0.0 | 0.0 | 0.00 | 0.00 | 0.00 | 98 | 1013.6 |
| 20260508123055 | 5 | 0 | 0.0 | 0.0 | 0.00 | 0.00 | 0.00 | 98 | 1013.6 |
| 20260508121602 | 5 | 0 | 0.0 | 0.0 | 0.00 | 0.00 | 0.00 | 98 | 1013.7 |
| 20260508120113 | 3 | 0 | 0.0 | 0.0 | 0.00 | 0.00 | 0.00 | 97 | 1013.4 |
| 20260508114610 | 3 | 0 | 0.0 | 0.0 | 0.00 | 0.00 | 0.00 | 97 | 1013.5 |
| 20260508113107 | 2 | 0 | 0.0 | 0.0 | 0.00 | 0.00 | 0.00 | 97 | 1013.3 |